Flag for Australia Weather past 2 weeks in Hobart, Tasmania, Australia

Now
48 °F

Broken clouds.


Feels Like: 43 °F
Forecast: 34 / 55 °F
Wind: 12 mph from South

Location: Hobart Airport

Current Time: Sep 5, 2015 at 4:57:00 PM

Latest Report: Sep 5, 2015 at 4:00 PM


Visibility: N/A

Pressure: 30.21 "Hg

Humidity: 62%

Dew point: 36 °F

Location of HobartLocation

Historic Weather in Hobart — Graph

°F

Hobart temperature yesterday

Maximum temperature yesterday: 59 °F (at 2:00 PM)
Minimum temperature yesterday: 34 °F (at 12:30 AM)
Average temperature yesterday: 49 °F

Past Weeks' High & Low Weather Summary

 TemperatureHumidityPressure
High63 °F (Aug 22, 1:00 PM)100% (Aug 31, 3:30 AM)30.45 "Hg (Aug 31, 3:30 AM)
Low34 °F (Sep 4, 12:30 AM)38% (Aug 24, 2:00 PM)29.65 "Hg (Aug 22, 3:30 AM)
Average47 °F73%30.12 "Hg
* Reported Aug 21 3:00 PM — Sep 5 3:30 PM, Hobart, Weather by CustomWeather, © 2015

Note: Actual official high and low records may vary slightly from our data, if they occured in-between our weather recording intervals... More about our weather records

Advertising

Hobart weather history for previous 24 hours

 ConditionsComfort  
Time TempWeatherWind HumidityBarometerVisibility
3:30 PM
Sat, Sep 5
48 °FScattered showers. Broken clouds.13 mph62%30.21 "HgN/A
3:00 PM48 °FScattered showers. Broken clouds.12 mph62%30.18 "HgN/A
2:30 PM50 °FScattered showers. Broken clouds.12 mph58%30.18 "HgN/A
2:00 PM48 °FDrizzle. Broken clouds.10 mph66%30.18 "HgN/A
1:30 PM50 °FSprinkles. Partly sunny.10 mph62%30.18 "HgN/A
1:00 PM48 °FScattered showers. Partly sunny.13 mph71%30.18 "HgN/A
12:30 PM48 °FSprinkles. Partly sunny.14 mph76%30.18 "HgN/A
12:00 PM50 °FScattered showers. Partly sunny.14 mph67%30.18 "HgN/A
11:30 AM50 °FScattered showers. Partly sunny.16 mph67%30.18 "HgN/A
11:00 AM50 °FScattered clouds.16 mph71%30.18 "HgN/A
10:30 AM50 °FScattered showers. Scattered clouds.14 mph67%30.18 "HgN/A
10:00 AM48 °FScattered showers. Scattered clouds.10 mph76%30.18 "HgN/A
9:30 AM48 °FSprinkles. Partly sunny.15 mph76%30.18 "HgN/A
9:00 AM48 °FScattered showers. Broken clouds.10 mph76%30.18 "HgN/A
8:30 AM48 °FSprinkles. Broken clouds.14 mph82%30.18 "HgN/A
8:00 AM48 °FScattered showers. Scattered clouds.9 mph71%30.15 "HgN/A
7:30 AM46 °FScattered showers. Scattered clouds.6 mph71%30.15 "HgN/A
7:00 AM45 °FScattered showers. Scattered clouds.7 mph71%30.12 "HgN/A
6:30 AM45 °FScattered clouds.7 mph71%30.12 "HgN/A
6:00 AM46 °FScattered clouds.10 mph62%30.09 "HgN/A
5:30 AM48 °FSunny.14 mph58%30.09 "HgN/A
5:00 AM48 °FPassing clouds.10 mph58%30.07 "HgN/A
4:30 AM46 °FPassing clouds.6 mph66%30.07 "HgN/A
4:00 AM48 °FPassing clouds.8 mph58%30.07 "HgN/A
3:00 AM48 °FPassing clouds.13 mph71%30.04 "HgN/A
2:30 AM48 °FPartly cloudy.10 mph76%30.04 "HgN/A
2:00 AM48 °FPartly cloudy.10 mph76%30.04 "HgN/A
1:00 AM48 °FPassing clouds.5 mph71%30.04 "HgN/A
12:00 AM48 °FPassing clouds.5 mph66%30.01 "HgN/A
11:30 PM
Fri, Sep 4
50 °FPassing clouds.9 mph67%30.01 "HgN/A
11:00 PM50 °FPassing clouds.12 mph62%30.01 "HgN/A
10:30 PM50 °FPassing clouds.12 mph62%30.01 "HgN/A
10:00 PM50 °FPassing clouds.10 mph62%30.01 "HgN/A
9:30 PM52 °FPassing clouds.13 mph58%30.01 "HgN/A
9:00 PM52 °FPassing clouds.13 mph54%29.98 "HgN/A
8:00 PM52 °FPassing clouds.13 mph54%29.98 "HgN/A
7:30 PM52 °FPassing clouds.15 mph54%29.98 "HgN/A
7:00 PM52 °FPassing clouds.15 mph54%29.98 "HgN/A
6:30 PM54 °FPassing clouds.14 mph47%29.98 "HgN/A
6:00 PM54 °FPassing clouds.17 mph51%29.98 "HgN/A
5:30 PM55 °FPassing clouds.16 mph47%29.95 "HgN/A
5:00 PM55 °FPassing clouds.17 mph47%29.95 "HgN/A
4:30 PM57 °FScattered clouds.17 mph44%29.95 "HgN/A
4:00 PM59 °FScattered clouds.17 mph42%29.95 "HgN/A
Weather by CustomWeather, © 2015

See weather overviewHow to use our weather pages